Погода в Николаеве

Россия / Ростовская область     48°01′00″N   41°44′12″E
темп.,
°C
ветер,
м/с
пор.,
м/с
влажн.,
%
обл.,
%
осадки,
мм/ч
давл.,
гПа
погр.,
м
6 мая, чт
чт600:00+9ююв11615 0.0 101811
03:00+8юв22645 0.0 101812
06:00+9вюв36735 0.0 1018128
09:00+15юв695062 0.0 1017834
12:00+18юв6843100 0.0 10161739
15:00+19ююв6740100 0.0 10141957
18:00+17ююв365899 0.0 1014175
21:00+13юв3366100 0.0 101427
7 мая, пт
пт700:00+12ююв4868100 0.0 1014141
03:00+11ю4127099 0.0 1013256
06:00+11ююв5117290 0.0 1014278
09:00+15ююз5667100 0.1 1015456
12:00+19юз5647100 0.0 10151513
15:00+20з674797 0.0 10142179
18:00+16ссз5769100 0.1 1016498
21:00+12ссз338238 0.1 101841
8 мая, сб
сб800:00+10св338935 0.0 101836
03:00+10в2294100 0.0 101737
06:00+11юв3491100 0.0 1017138
09:00+17ю4567100 0.0 1016632
12:00+20ююз5654100 0.0 10151273
15:00+21ююз6751100 0.0 10131558
18:00+20ю476696 0.0 1013391
21:00+16ююв3578100 0.2 101270
9 мая, вс
вс900:00+15ююз238689 0.6 101124
03:00+13ссз4890100 3.2 1011222
06:00+11с7119399 0.8 1010429
09:00+11с71189100 1.3 1011621
12:00+8с101492100 3.2 1012503
15:00+8с91290100 3.7 1013727
18:00+6ссз101692100 1.5 1015886
21:00+6ссз91691100 3.3 1017915
10 мая, пн
пн1000:00+6ссз91692100 3.4 1018856
03:00+6ссз91692100 7.1 1018898
06:00+6ссз81493100 3.6 1019885
09:00+6ссз101793100 6.9 1018739
12:00+7с101793100 0.5 1017604
15:00+9с91793100 1.0 1016782
18:00+11ссв111993100 1.3 1014791
21:00+11ссв132191100 3.0 1013792